Location: Huesca
(42.1318°N, 0.4078°W)
Time: 18:10:51
(UTC+02:00)

ITAMSAT 1 - Pass Details

Date: 01 May 2024
Orbit: 781 x 796 km, 98.8° (Epoch: 27 May)

Event Time Altitude Azimuth Distance (km) Brightness Sun altitude
Exits shadow 21:26:21 - 130° (SE) 2,785 9.9 -5.1°
Reaches altitude 10° 21:27:33 10° 124° (ESE) 2,362 9.5 -5.3°
Maximum altitude 21:31:59 29° 65° (ENE) 1,435 8.7 -6.0°
Drops below altitude 10° 21:36:24 10° 8° (N) 2,371 10.4 -6.7°
Sets 21:38:59 0° 357° (N) 3,303 11.4 -7.2°
